User: anonymous
Location: Bridgewater
(44.3670°N, 64.5170°W)
Time: 05:42:31
(UTC-03:00)
Language:

OPAL - Orbit

View from above orbital plane
View from above orbital plane
View from above satellite
View from above satellite

Ground track
Ground track

The orbit data is extracted from the following two-line orbital elements,

1 26063U 00004C   14292.70584671  .00000274  00000-0  11292-3 0   900
2 26063 100.2257 101.7579 0036943 166.3658 193.8528 14.36417692771909
Epoch (UTC): 19 October 2014 16:56:25
Eccentricity: 0.0036943
inclination: 100.2257°
perigee height: 744 km
apogee height: 797 km
right ascension of ascending node: 101.7579°
argument of perigee: 166.3658°
revolutions per day: 14.36417692
mean anomaly at epoch: 193.8528°
orbit number at epoch: 77190

The dashed part of the orbit path shows where the satellite is in the earth's shadow,  

DLR